Weather History for Burlington, VT

Change the Weather History Date:

Monday, June 23, 2014

  Actual Average Record
Temperature  
Mean Temperature 68 °F 68 °F  
Max Temperature 84 °F 79 °F 93 °F (1975)
Min Temperature 52 °F 58 °F 41 °F (1940)
Degree Days  
Heating Degree Days 0 1  
Month to date heating degree days 20 66  
Since 1 June heating degree days 20 66  
Since 1 July heating degree days 7613 7427  
Cooling Degree Days 3 4  
Month to date cooling degree days 67 63  
Year to date cooling degree days 89 82  
Since 1 June cooling degree days 67 63  
Growing Degree Days 18 (Base 50)    
Moisture  
Dew Point 51 °F    
Average Humidity 57    
Maximum Humidity 83    
Minimum Humidity 31    
Precipitation  
Precipitation 0.00 in 0.12 in 1.53 in (1906)
Month to date precipitation 2.82 2.81  
Year to date precipitation 16.58 15.12  
Snow  
Snow 0.00 in 0.00 in 0.00 in (2002)
Month to date snowfall 0.0 0.0  
Since 1 June snowfall 0.0 0.0  
Since 1 July snowfall 86.5 81.2  
Snow Depth 0.00 in    
Sea Level Pressure  
Sea Level Pressure 30.06 in    
Wind  
Wind Speed 7 mph (South)    
Max Wind Speed 17 mph    
Max Gust Speed 23 mph    
Visibility 10 miles    
Events      
T = Trace of Precipitation, MM = Missing Value Source: NWS Daily Summary

Daily Weather History Graph

Daily Weather History Graph

Search for Another Location

Airport:

Trip Planner

Search our weather history database for the weather conditions in past years. The results will help you decide how hot, cold, wet, or windy it might be!

Date:

Astronomy

Jun. 23, 2014 Rise Set
Actual Time 5:08 AM EDT 8:41 PM EDT
Civil Twilight 4:31 AM EDT 9:18 PM EDT
Nautical Twilight 3:42 AM EDT 10:06 PM EDT
Astronomical Twilight 2:39 AM EDT 11:09 PM EDT
Moon 2:39 AM EDT (6/23) 5:14 PM EDT (6/23)
Length of Visible Light 16h 46m
Length of Day
15h 32m
Waning Crescent, 13% of the Moon is Illuminated
Jun 23
Waning Crescent
Jun 27
New
Jul 5
First Quarter
Jul 12
Full
Jul 18
Last Quarter

Hourly Weather History & Observations

Time (EDT) Temp. Dew Point Humidity Pressure Visibility Wind Dir Wind Speed Gust Speed Precip Events Conditions
12:54 AM 57.0 °F 50.0 °F 77% 30.03 in 10.0 mi Calm Calm - N/A   Clear
1:54 AM 55.9 °F 50.0 °F 80% 30.04 in 10.0 mi Calm Calm - N/A   Clear
2:54 AM 54.0 °F 48.9 °F 83% 30.06 in 10.0 mi Calm Calm - N/A   Clear
3:54 AM 54.0 °F 48.9 °F 83% 30.06 in 10.0 mi Calm Calm - N/A   Clear
4:54 AM 53.1 °F 48.0 °F 83% 30.07 in 10.0 mi Calm Calm - N/A   Clear
5:54 AM 54.0 °F 48.9 °F 83% 30.08 in 10.0 mi Calm Calm - N/A   Clear
6:54 AM 57.0 °F 50.0 °F 77% 30.09 in 10.0 mi East 3.5 mph - N/A   Clear
7:54 AM 63.0 °F 51.1 °F 65% 30.11 in 10.0 mi Calm Calm - N/A   Partly Cloudy
8:54 AM 68.0 °F 53.1 °F 59% 30.12 in 10.0 mi South 4.6 mph - N/A   Partly Cloudy
9:54 AM 73.0 °F 52.0 °F 48% 30.11 in 10.0 mi Variable 4.6 mph - N/A   Partly Cloudy
10:54 AM 77.0 °F 52.0 °F 42% 30.10 in 10.0 mi Variable 3.5 mph - N/A   Scattered Clouds
11:54 AM 78.1 °F 53.1 °F 42% 30.08 in 10.0 mi South 6.9 mph - N/A   Scattered Clouds
12:54 PM 80.1 °F 52.0 °F 38% 30.06 in 10.0 mi South 8.1 mph 17.3 mph N/A   Scattered Clouds
1:54 PM 81.0 °F 50.0 °F 34% 30.05 in 10.0 mi SSW 10.4 mph - N/A   Mostly Cloudy
2:54 PM 82.0 °F 48.9 °F 31% 30.05 in 10.0 mi South 11.5 mph 20.7 mph N/A   Mostly Cloudy
3:54 PM 82.9 °F 48.9 °F 31% 30.04 in 10.0 mi South 15.0 mph 23.0 mph N/A   Scattered Clouds
4:54 PM 82.4 °F 50.0 °F 32% 30.04 in 10.0 mi South 12.7 mph - N/A   Scattered Clouds
5:54 PM 80.6 °F 51.8 °F 37% 30.03 in 10.0 mi South 12.7 mph - N/A   Overcast
6:54 PM 79.0 °F 52.0 °F 39% 30.02 in 10.0 mi South 9.2 mph - N/A   Overcast
7:54 PM 77.0 °F 52.0 °F 42% 30.02 in 10.0 mi South 9.2 mph - N/A   Mostly Cloudy
8:54 PM 77.0 °F 51.1 °F 40% 30.02 in 10.0 mi South 9.2 mph - N/A   Mostly Cloudy
9:54 PM 73.9 °F 51.1 °F 45% 30.03 in 10.0 mi South 6.9 mph - N/A   Overcast
10:54 PM 73.0 °F 51.1 °F 46% 30.03 in 10.0 mi South 8.1 mph - N/A   Overcast
11:54 PM 73.0 °F 52.0 °F 48% 30.03 in 10.0 mi South 8.1 mph - N/A   Clear